CZ-6A DEB

Satellite information

Favourite Embed

Satellite Type and Status

DEBRISIN ORBIT

Key statistics

Satellite CZ-6A DEB at a glance.

Uptime

436

Days in orbit

Revolutions

≈ 14.3

Per day

Orbit

LEO

Low Earth Orbit

Inclination

88.9

Latest

Satellite identification and parameters

Extended collection of information and parameters for CZ-6A DEB.

Object identification

Identified? True

Debris? True

Object name: CZ-6A DEB

International designator: 2024-140XU

Object number (NORAD): 61403

Object ID (CCSDS): 61403

Country: PEOPLES REPUBLIC OF CHINA (PRC)

Current information (Y/N): Y

RCS size: SMALL

Orbital parameters

Period: 101.035 minutes

Inclination: 88.9491 deg

SMA: 7185.81 km

Apoapsis: 829.931 km

Periapsis: 785.419 km

RAAN: 299.4205 deg

Eccentricy: 0.00309722

Argument of periapsis: 258.7896 deg

Mean anomaly: 100.9816 deg

Mean motion: 14.25243865 rev/day

Mean motion (dot): 0.00003652 rev/day2

B* drag term: 0.0015402099 1/REarth

Two-line elements (TLE)

Creation date: Oct. 16, 2025, 2:37 a.m.

Reference frame: TEME

Reference center: EARTH

Epoch: Oct. 15, 2025, 8:57 p.m. UTC

TLE line 0: 0 CZ-6A DEB

TLE line 1: 1 61403U 24140XU 25288.87352943 .00003652 00000-0 15402-2 0 9991

TLE line 2: 2 61403 88.9491 299.4205 0030972 258.7896 100.9816 14.25243865 57166

Live tracking on map

Real-time ground track for satellite CZ-6A DEB.

In-orbit conjunctions

A list of the most updated potential collisions computed for object CZ-6A DEB.

Target Orbit TCA Probability of collision Miss distance Type
COSMOS 1486 LEO 2025-08-16 15:22:16 0.0001072964 589.0 (m) PAYLOAD
DELTA 2 R/B LEO 2025-04-12 12:39:54 0.0001936757 341.0 (m) ROCKET BODY
FENGYUN 1C DEB SSO 2025-03-01 22:20:23 0.0002463125 991.0 (m) DEBRIS
CZ-6A DEB SSO 2025-01-27 14:32:32 0.0001103536 57.0 (m) DEBRIS
FENGYUN 1C DEB SSO 2024-10-19 21:47:08 0.0001048308 741.0 (m) DEBRIS

Associated space launch

18 Low Earth Orbit communication satellites with Ku, Q and V band payloads for the G60 constellation operated by Shanghai Spacecom Satellite Technology (SSST) with funding backed by the Shanghai local government. Initial constellation will consist of 1296 satellites by 2027 with long term plans to expand it to 12000 satellites.

CZ-6A DEB was lifted into orbit during the mission ‘Long March 6A | G60 Polar Group 01’, on board a Long March 6A space rocket.

The launch took place on Aug. 6, 2024, 6:42 a.m. from Launch Complex 9A.

For more information about the launch, click the button.

Launch to space Long March 6A | G60 Polar Group 01
Long March 6A | G60 Polar Group 01

Agency: N/A

Status: Launch Successful

Launch date: Aug. 6, 2024, 6:42 a.m. UTC

Rocket: Long March 6A

Launch pad: Launch Complex 9A

Location: Taiyuan Satellite Launch Center, People's Republic of China

...

Latest news about this satellite

News about space launch
Brightness of first Chinese broadband constellation satellites alarms astronomers

The first satellites of a Chinese broadband constellation are significantly brighter than those of Western systems, posing a new challenge for astronomers.

News about space launch
Chinese rocket stage breaks up into cloud of more than 700 pieces of space debris

HELSINKI — A Chinese Long March 6A rocket’s upper stage has fragmented into a cloud of over 700 pieces of space debris, adding to concerns about long-term orbital safety. China […]

News about space launch
China's Thousand Sails Megaconstellation Kicks Off with Dangerous Debris Field

China's Thousand Sails Megaconstellation Kicks Off with Dangerous Debris Field


Newsletter sign-up

Weekly statistics, charts and insights to help you stay on top of the space industry.